STARLINK-32945, 63118

Orbit data source: Space-Track

STARLINK-32945, 63118 is a payload satellite owned by SpaceX/Seattle (US) in LEO that was launched on Thu, 27 Feb 2025 UTC via an FALCON 9 launch vehicle from the Air Force Eastern Test Range (AFETR). Payload-class satellites include a variety of spacecraft equipped with specific instruments for various scientific and technological missions. These include communications satellites like Starlink; space stations such as the ISS; scientific satellites like the Hubble; Earth observation satellites from companies like Planet Labs, Umbra, and HawkEye 360; GPS; miniature CubeSats for education and research; and military/defense satellites.

Loading next visibility...
Identifier
63118, 2025-039Q
Orbit
LEO
Country
Flag of USUS
Related business
Manufacturer
SpaceX/Seattle
Mission
Operational Commercial Communications
Bus & Motor
STARLINK V2M, Unknown motor
Mass
730 kg wet, ~700 kg dry
Launch date (UTC)
2025-02-27 (11 months ago)
Launch vehicle
FALCON 9
Launch site
Air Force Eastern Test Range (AFETR)
Object type
Payload
Rocket body
Debris
Shape & HBR
Box + 2 Pan, 17.7 m
Radar Cross Section
33.884 m², Large (>1 m²)

Expand to show TLE details & history
Last TLE update: 9 hours ago

TLE from 9 hours ago
0 STARLINK-32945
1 63118U 25039Q   26036.48662813  .00024892  00000-0  91050-3 0  9996
2 63118  42.9992 194.4853 0000939 266.5145  93.5599 15.27598706 53143
Epoch: 2026-02-05T11:40Z
TLE epoch observation values (Epoch: 2026-02-05T11:40:44.670Z)
Latitude
-0.00003°
Longitude
-116.33902°
Altitude
482.808 km
Speed
7.626 km/s
True Right ascension
12h 57m 56s
True Declination
0° 00' 00"
Sunlit
Object was in full shadow at epoch
Visualization orbit readout
Latitude
Unknown
Longitude
Unknown
Altitude
Unknown
Speed
Unknown
Apparent Right ascension
Unknown
Apparent Declination
Unknown
Sunlit
N/A
Visualization observer readout
Local Sidereal Time
23:11:37
Azimuth
Unknown
Elevation
Unknown
Doppler factor
Unknown
Orbital elements
Apogee altitude
485.583 km
Perigee altitude
484.294 km
Semi-major axis
6,863.075 km
Eccentricity
0.00009
Inclination
42.9992°
RAAN
194.4853°
Arg. of periapsis
266.5145°
True anomaly
93.57064°
Mean anomaly
93.5599°
Eccentric anomaly
93.56527°
Mean motion
3.81738 °/min
Orbital period
94.31 mins
BSTAR
0.0009105
Loading maneuver chart data...
Computing Atmospheric mass density...
Loading historical data...
Loading historical data...
Loading historical data...
Loading historical data...
Loading historical data...
Loading historical data...
Loading historical data...

Documentation

Showing up to 5 results
|